When you browse on this site, cookies collect data to enhance your experience and personalize the content and advertising you see.
Visit our Privacy Policy to learn more. By continuing to use the site, you agree to this use of cookies and data.
  • In Hungary
  • List of Countries
  • For 7 days
  • Water Temperature
  • Satellite Maps
  • Weather Map
  • News
  • Weather Widgets
  • user-avatar
    Login

    Hourly Weather Sloboda-Rivnyans'ka

    Today, 11 December, Tuesday

    Time Temperature Precipitation Wind Pressure Humidity
    00:00 -1°C° 0 mm 2 mps 720 mmHg 93%
    01:00 -1°C° 0 mm 3 mps 720 mmHg 95%
    02:00 0°C° 0 mm 1 mps 720 mmHg 91%
    03:00 -2°C° 0 mm 2 mps 720 mmHg 95%
    04:00 -2°C° 0 mm 2 mps 720 mmHg 94%
    05:00 -2°C° 0 mm 2 mps 720 mmHg 92%
    06:00 -2°C° 0 mm 2 mps 720 mmHg 94%
    07:00 -2°C° 0 mm 2 mps 721 mmHg 96%
    08:00 -2°C° 0 mm 3 mps 721 mmHg 96%
    09:00 -2°C° 0 mm 2 mps 721 mmHg 97%
    10:00 -1°C° 0 mm 2 mps 721 mmHg 94%
    11:00 -1°C° 0 mm 2 mps 721 mmHg 96%
    12:00 +2°C° 0 mm 1 mps 721 mmHg 88%
    13:00 +3°C° 0 mm 1 mps 721 mmHg 84%
    14:00 +3°C° 0 mm 1 mps 721 mmHg 82%
    15:00 +3°C° 0 mm 1 mps 722 mmHg 82%
    16:00 +3°C° 0 mm 1 mps 722 mmHg 90%
    17:00 +2°C° 0 mm 1 mps 722 mmHg 89%
    18:00 +1°C° 0 mm 1 mps 722 mmHg 94%
    19:00 -1°C° 0 mm 2 mps 722 mmHg 92%
    20:00 -1°C° 0 mm 2 mps 722 mmHg 92%
    21:00 -2°C° 0 mm 2 mps 722 mmHg 93%
    22:00 -2°C° 0 mm 2 mps 722 mmHg 95%
    23:00 0°C° 0 mm 1 mps 722 mmHg 99%

    Tomorrow, 12 December, Wednesday

    Time Temperature Precipitation Wind Pressure Humidity
    00:00 -1°C° 0 mm 1 mps 722 mmHg 99%
    01:00 -1°C° 0 mm 1 mps 722 mmHg 96%
    02:00 -1°C° 0 mm 1 mps 722 mmHg 97%
    03:00 -1°C° 0 mm 1 mps 723 mmHg 100%
    04:00 -3°C° 0 mm 0 mps 722 mmHg 100%
    05:00 -3°C° 0 mm 0 mps 723 mmHg 100%
    06:00 -3°C° 0 mm 0 mps 723 mmHg 100%
    07:00 -2°C° 0 mm 1 mps 723 mmHg 100%
    08:00 -2°C° 0 mm 1 mps 723 mmHg 100%
    09:00 -1°C° 0 mm 1 mps 724 mmHg 100%
    10:00 -2°C° 0 mm 0 mps 724 mmHg 100%
    11:00 0°C° 0 mm 1 mps 724 mmHg 100%
    12:00 -1°C° 0 mm 2 mps 724 mmHg 97%
    13:00 -1°C° 0 mm 2 mps 724 mmHg 99%
    14:00 -1°C° 0 mm 3 mps 724 mmHg 99%
    15:00 -1°C° 0 mm 3 mps 724 mmHg 100%
    16:00 -3°C° 0.1 mm 4 mps 724 mmHg 100%
    17:00 -3°C° 0.1 mm 4 mps 724 mmHg 100%
    18:00 -4°C° 0 mm 4 mps 724 mmHg 100%
    19:00 -5°C° 0 mm 5 mps 724 mmHg 100%
    20:00 -5°C° 0 mm 5 mps 724 mmHg 100%
    21:00 -5°C° 0 mm 5 mps 724 mmHg 100%
    22:00 -5°C° 0.1 mm 6 mps 724 mmHg 100%
    23:00 -5°C° 0.1 mm 6 mps 724 mmHg 100%

    Day after tomorrow, 13 December, Thursday

    Time Temperature Precipitation Wind Pressure Humidity
    00:00 -5°C° 0.2 mm 6 mps 724 mmHg 100%
    01:00 -5°C° 0.3 mm 6 mps 724 mmHg 100%
    02:00 -5°C° 0.5 mm 6 mps 723 mmHg 100%
    03:00 -5°C° 0.9 mm 5 mps 723 mmHg 100%
    04:00 -5°C° 1 mm 5 mps 723 mmHg 100%
    05:00 -6°C° 0.9 mm 5 mps 723 mmHg 100%
    06:00 -6°C° 0.8 mm 5 mps 723 mmHg 100%
    07:00 -6°C° 0.8 mm 5 mps 723 mmHg 100%
    08:00 -6°C° 0.8 mm 5 mps 723 mmHg 100%
    09:00 -6°C° 0.8 mm 5 mps 723 mmHg 100%
    10:00 -5°C° 0.8 mm 4 mps 723 mmHg 100%
    11:00 -5°C° 0.7 mm 4 mps 723 mmHg 100%
    12:00 -5°C° 0.6 mm 4 mps 723 mmHg 100%
    13:00 -5°C° 0.5 mm 4 mps 723 mmHg 100%
    14:00 -5°C° 0.5 mm 4 mps 723 mmHg 100%
    15:00 -5°C° 0.4 mm 4 mps 724 mmHg 100%
    16:00 -5°C° 0.4 mm 4 mps 724 mmHg 100%
    17:00 -5°C° 0.5 mm 4 mps 724 mmHg 100%
    18:00 -5°C° 0.5 mm 4 mps 724 mmHg 100%
    19:00 -5°C° 0.4 mm 4 mps 724 mmHg 100%
    20:00 -5°C° 0.4 mm 4 mps 725 mmHg 100%
    21:00 -7°C° 0.4 mm 4 mps 725 mmHg 100%
    22:00 -6°C° 0.3 mm 3 mps 725 mmHg 100%
    23:00 -6°C° 0.3 mm 3 mps 725 mmHg 100%

    14 December, Friday

    Time Temperature Precipitation Wind Pressure Humidity
    00:00 -6°C° 0.3 mm 3 mps 725 mmHg 100%
    01:00 -6°C° 0.3 mm 3 mps 725 mmHg 100%
    02:00 -6°C° 0.3 mm 3 mps 726 mmHg 100%
    03:00 -6°C° 0.2 mm 3 mps 726 mmHg 100%
    04:00 -6°C° 0.1 mm 3 mps 726 mmHg 100%
    05:00 -7°C° 0.2 mm 3 mps 726 mmHg 100%
    06:00 -7°C° 0.2 mm 3 mps 726 mmHg 100%
    07:00 -7°C° 0.1 mm 3 mps 727 mmHg 100%
    08:00 -7°C° 0.1 mm 3 mps 727 mmHg 100%
    09:00 -7°C° 0 mm 3 mps 727 mmHg 100%
    10:00 -7°C° 0.1 mm 3 mps 728 mmHg 100%
    11:00 -6°C° 0.1 mm 3 mps 728 mmHg 100%
    12:00 -6°C° 0 mm 3 mps 728 mmHg 100%
    13:00 -5°C° 0 mm 2 mps 728 mmHg 100%
    14:00 -5°C° 0.1 mm 2 mps 728 mmHg 100%
    15:00 -5°C° 0 mm 2 mps 728 mmHg 100%
    16:00 -4°C° 0.1 mm 1 mps 728 mmHg 100%
    17:00 -4°C° 0.1 mm 1 mps 729 mmHg 100%
    18:00 -6°C° 0 mm 1 mps 729 mmHg 100%
    19:00 -7°C° 0 mm 1 mps 729 mmHg 100%
    20:00 -8°C° 0 mm 1 mps 729 mmHg 100%
    21:00 -8°C° 0 mm 1 mps 729 mmHg 100%
    22:00 -9°C° 0 mm 1 mps 729 mmHg 100%
    23:00 -9°C° 0 mm 1 mps 729 mmHg 100%

    15 December, Saturday

    Time Temperature Precipitation Wind Pressure Humidity
    00:00 -9°C° 0 mm 0 mps 729 mmHg 100%
    01:00 -10°C° 0 mm 0 mps 729 mmHg 100%
    02:00 -10°C° 0 mm 0 mps 729 mmHg 100%

    16 December, Sunday

    Time Temperature Precipitation Wind Pressure Humidity
    Show more